| time (UTC) | temp C | wind direction | speed KPH | gust KPH | rain 1hr cm | rain 24hr cm | rain mn cm | humidity % | barometer mb |
| 20260906103123 | 20 | 36 | 6.4 | 6.4 | 0.00 | 0.00 | 0.00 | 92 | 1017.4 |
| 20260906100123 | 20 | 43 | 0.0 | 11.3 | 0.00 | 0.00 | 0.00 | 91 | 1017.1 |
| 20260906093123 | 21 | 53 | 0.0 | 8.0 | 0.00 | 0.00 | 0.00 | 91 | 1017.1 |
| 20260906083123 | 21 | 54 | 1.6 | 16.1 | 0.00 | 0.00 | 0.00 | 91 | 1017.0 |
| 20260906080123 | 21 | 44 | 3.2 | 16.1 | 0.00 | 0.00 | 0.00 | 90 | 1017.3 |
| 20260906073123 | 22 | 55 | 8.0 | 14.5 | 0.00 | 0.00 | 0.00 | 90 | 1017.5 |
| 20260906063123 | 22 | 46 | 0.0 | 16.1 | 0.00 | 0.00 | 0.00 | 89 | 1017.4 |
| 20260906060123 | 22 | 45 | 1.6 | 16.1 | 0.00 | 0.00 | 0.00 | 89 | 1017.3 |
| 20260906053123 | 22 | 35 | 12.9 | 19.3 | 0.00 | 0.00 | 0.00 | 89 | 1016.9 |
| 20260906050123 | 22 | 53 | 9.7 | 29.0 | 0.00 | 0.00 | 0.00 | 90 | 1016.5 |
| 20260906043123 | 22 | 360 | 1.6 | 22.5 | 0.00 | 0.00 | 0.00 | 90 | 1016.1 |
| 20260906023123 | 22 | 34 | 9.7 | 25.7 | 0.00 | 0.00 | 0.00 | 87 | 1015.9 |
| 20260906020123 | 22 | 5 | 16.1 | 25.7 | 0.00 | 0.00 | 0.00 | 86 | 1016.1 |
| 20260906013122 | 22 | 17 | 12.9 | 32.2 | 0.00 | 0.00 | 0.00 | 84 | 1015.9 |
| 20260906010123 | 22 | 340 | 6.4 | 33.8 | 0.00 | 0.00 | 0.00 | 83 | 1015.6 |
| 20260906000123 | 24 | 360 | 22.5 | 29.0 | 0.00 | 0.00 | 0.00 | 81 | 1015.1 |
| 20260905223123 | 26 | 11 | 20.9 | 27.4 | 0.00 | 0.00 | 0.00 | 78 | 1014.4 |
| 20260905220122 | 27 | 27 | 16.1 | 33.8 | 0.00 | 0.00 | 0.00 | 75 | 1014.4 |
| 20260905210122 | 28 | 344 | 11.3 | 33.8 | 0.00 | 0.00 | 0.00 | 74 | 1014.1 |
| 20260905203122 | 28 | 44 | 32.2 | 35.4 | 0.00 | 0.00 | 0.00 | 70 | 1014.3 |
| 20260905200122 | 28 | 49 | 11.3 | 32.2 | 0.00 | 0.00 | 0.00 | 71 | 1014.1 |
| 20260905193122 | 29 | 34 | 12.9 | 37.0 | 0.00 | 0.00 | 0.00 | 70 | 1014.4 |
| 20260905190125 | 29 | 344 | 11.3 | 27.4 | 0.00 | 0.00 | 0.00 | 71 | 1014.4 |
| 20260905180122 | 29 | 51 | 17.7 | 22.5 | 0.00 | 0.00 | 0.00 | 74 | 1014.5 |
| 20260905173122 | 29 | 34 | 12.9 | 27.4 | 0.00 | 0.00 | 0.00 | 72 | 1014.5 |
| 20260905170122 | 29 | 350 | 8.0 | 27.4 | 0.00 | 0.00 | 0.00 | 76 | 1014.7 |
| 20260905163122 | 28 | 346 | 3.2 | 20.9 | 0.00 | 0.00 | 0.00 | 77 | 1014.8 |
| 20260905160122 | 28 | 22 | 6.4 | 22.5 | 0.00 | 0.00 | 0.00 | 79 | 1014.7 |
| 20260905153122 | 28 | 21 | 8.0 | 25.7 | 0.00 | 0.00 | 0.00 | 81 | 1014.4 |
| 20260905150121 | 28 | 332 | 3.2 | 20.9 | 0.00 | 0.00 | 0.00 | 81 | 1014.2 |
| 20260905143122 | 27 | 36 | 8.0 | 16.1 | 0.00 | 0.00 | 0.00 | 85 | 1014.0 |
| 20260905140122 | 26 | 360 | 6.4 | 14.5 | 0.00 | 0.00 | 0.00 | 92 | 1013.9 |
| 20260905130122 | 25 | 325 | 3.2 | 8.0 | 0.00 | 0.00 | 0.00 | 93 | 1013.7 |
| 20260905123121 | 24 | 306 | 0.0 | 20.9 | 0.00 | 0.00 | 0.00 | 93 | 1013.5 |
| 20260905120122 | 24 | 232 | 3.2 | 11.3 | 0.00 | 0.00 | 0.00 | 93 | 1013.2 |
| 20260905113122 | 24 | 222 | 1.6 | 6.4 | 0.00 | 0.00 | 0.00 | 93 | 1013.1 |